Regional Weather Roundup
Issued by NWS Albany, NY

Home | Current Version | Previous Version | Text Only | Print | Product List | Glossary On
Versions: 1 2 3 4 5 6 7 8 9 10 11 12 13 14 15 16 17 18 19 20 21 22 23 24 25 26 27 28
000
ASUS41 KALY 151910
RWRALY

NEW YORK STATE HOURLY WEATHER ROUNDUP
NATIONAL WEATHER SERVICE ALBANY NY
300 PM EDT TUE APR 15 2014

NOTE: "FAIR" INDICATES FEW OR NO CLOUDS BELOW 12,000 FEET WITH NO
SIGNIFICANT WEATHER AND/OR NO OBSTRUCTIONS TO VISIBILITY.

NYZ032-033-038>043-046>054-057>066-NYZ062>081-152000-
EAST


CITY           SKY/WX    TMP DP  RH WIND       PRES   REMARKS
ALBANY         LGT RAIN  45  40  82 W13G21    29.57R
GLENS FALLS    LGT RAIN  56  53  90 W12       29.48R
POUGHKEEPSIE   LGT RAIN  64  60  87 VRB6      29.50F
NEWBURGH       LGT RAIN  61  61 100 S6        29.53F FOG
MONTGOMERY     HVY RAIN  63  61  93 S13       29.49F FOG
WHITE PLAINS   LGT RAIN  56  55  97 S13G24    29.56F VSB 1/4
ISLIP          LGT RAIN  58  55  90 S25G38    29.59F FOG
NEW YORK CITY  CLOUDY    58  55  90 S15G24    29.55F
CENTRAL PARK   LGT RAIN  58  55  90 S8        29.57F FOG
$$

NYZ005>009-017-018-044>046-055-056-152000-
CENTRAL


CITY           SKY/WX    TMP DP  RH WIND       PRES   REMARKS
FULTON         LGT SNOW  32  29  88 W20G26    29.76R FOG     WCI  20
SYRACUSE       SNOW      32  32 100 W15G21    29.78R VSB 1/2 WCI  22
ROME           LGT SNOW  34  32  92 W14       29.72R FOG     WCI  25
ELMIRA         LGT SNOW  36  32  85 CALM      29.75R FOG
BINGHAMTON     LGT RAIN  33  31  92 NW12G22   29.68R FOG     WCI  24
MONTICELLO     CLOUDY    46  46 100 NW10G21   29.59R
$$

NYZ026>034-041>043-152000-
NORTH


CITY           SKY/WX    TMP DP  RH WIND       PRES   REMARKS
WATERTOWN      LGT SNOW  35  31  85 W8        29.70S FOG     WCI  29
FORT DRUM      NOT AVBL
MASSENA        LGT SNOW  32  30  92 W20G26    29.66R FOG     WCI  20
SARANAC LAKE   LGT RAIN  39  37  92 W10       29.54R FOG     WCI  32
PLATTSBURGH    RAIN      47  43  86 W6        29.50R
$$

NYZ001>004-010>016-019>021-152000-
WEST


CITY           SKY/WX    TMP DP  RH WIND       PRES   REMARKS
NIAGARA FALLS  CLOUDY    31  23  72 NW22      29.83S WCI  18
BUFFALO        FLURRIES  32  25  75 W16G22    29.82R WCI  21
DUNKIRK        CLOUDY    31  25  78 W14G25    29.91R WCI  21
JAMESTOWN      CLOUDY    27  21  80 CALM      29.86R
WELLSVILLE     FLURRIES  31  25  78 NW21G30   29.74R WCI  18
ROCHESTER      CLOUDY    33  26  75 W15G24    29.82R WCI  23
PENN YAN       FLURRIES  33  29  85 NW12      29.76R WCI  24
$$

             KEY
       WCI = WIND CHILL INDEX
       VSB = VISIBILITY
       HX  = HEAT INDEX
$$



USA.gov is the U.S. government's official web portal to all federal, state and local government web resources and services.